Weather History for Borden, ON

Change the Weather History Date:

Monday, April 21, 2014

  Actual Average Record
Temperature  
Mean Temperature 61 °F -  
Max Temperature 76 °F 59 °F 76 °F (2014)
Min Temperature 46 °F 37 °F 20 °F (2013)
Degree Days  
Heating Degree Days 4    
Growing Degree Days 11 (Base 50)    
Moisture  
Dew Point 38 °F    
Average Humidity 49    
Maximum Humidity 82    
Minimum Humidity 18    
Precipitation  
Precipitation 0.00 in - - ()
Sea Level Pressure  
Sea Level Pressure 29.94 in    
Wind  
Wind Speed 5 mph ()    
Max Wind Speed 16 mph    
Max Gust Speed -    
Visibility 9.0 miles    
Events Rain    
Averages and records for this station are not official NWS values.
T = Trace of Precipitation, MM = Missing Value Source: Averaged Metar Reports

Daily Weather History Graph

Daily Weather History Graph

Search for Another Location

Airport:

Trip Planner

Search our weather history database for the weather conditions in past years. The results will help you decide how hot, cold, wet, or windy it might be!

Date:

Astronomy

Apr. 21, 2014 Rise Set
Actual Time 6:26 AM EDT 8:11 PM EDT
Civil Twilight 5:55 AM EDT 8:42 PM EDT
Nautical Twilight 5:17 AM EDT 9:19 PM EDT
Astronomical Twilight 4:37 AM EDT 10:00 PM EDT
Moon 1:43 AM EDT (4/21) 11:48 AM EDT (4/21)
Length of Visible Light 14h 46m
Length of Day
13h 45m
Waning Gibbous, 58% of the Moon is Illuminated
Apr 21
Waning Gibbous
Apr 22
Last Quarter
Apr 29
New
May 6
First Quarter
May 14
Full

Hourly Weather History & Observations

Time (EDT) Temp. Windchill Dew Point Humidity Pressure Visibility Wind Dir Wind Speed Gust Speed Precip Events Conditions
12:00 AM 46.4 °F 45.2 °F 33.8 °F 62% 30.14 in 9.0 mi South 3.5 mph - N/A   Clear
1:00 AM 48.2 °F - 28.4 °F 46% 30.11 in 9.0 mi South 12.7 mph - N/A   Clear
2:00 AM 48 °F - 31 °F 39% 30.09 in 9 mi South 6.9 mph - -  
2:00 AM 48.2 °F - 30.2 °F 50% 30.09 in 9.0 mi South 8.1 mph - N/A   Partly Cloudy
3:00 AM 48.2 °F - 32.0 °F 54% 30.07 in 9.0 mi SSW 6.9 mph - N/A   Clear
3:47 AM 51.8 °F - 33.8 °F 50% 30.04 in 9.0 mi SSE 10.4 mph - N/A Rain Light Rain
4:00 AM 50.0 °F - 35.6 °F 58% 30.06 in 9.0 mi SSE 8.1 mph - N/A Rain Light Rain
4:08 AM 51.8 °F - 35.6 °F 54% 30.04 in 9.0 mi SSE 6.9 mph - N/A   Overcast
5:00 AM 50.0 °F - 35.6 °F 58% 30.04 in 9.0 mi SE 2.3 mph - N/A   Overcast
5:55 AM 48.2 °F - 35.6 °F 62% 30.02 in 9.0 mi East 3.5 mph - N/A Rain Light Rain
6:00 AM 48.2 °F - 35.6 °F 62% 30.04 in 9.0 mi East 2.3 mph - N/A Rain Light Rain
6:11 AM 48.2 °F - 37.4 °F 66% 30.02 in 9.0 mi ESE 5.8 mph - N/A   Overcast
7:00 AM 50.0 °F - 35.6 °F 58% 30.04 in 9.0 mi Calm Calm - N/A   Mostly Cloudy
8:00 AM 53 °F - 36 °F 40% 30.03 in 9 mi SSE 4.6 mph - -  
8:00 AM 53.6 °F - 35.6 °F 51% 30.03 in 9.0 mi SSE 4.6 mph - N/A   Partly Cloudy
9:00 AM 55.4 °F - 35.6 °F 47% 30.02 in 9.0 mi Calm Calm - N/A   Overcast
10:00 AM 55.4 °F - 35.6 °F 47% 30.00 in 9.0 mi Calm Calm - N/A   Overcast
11:00 AM 60.8 °F - 35.6 °F 39% 29.97 in 9.0 mi Calm Calm - N/A   Mostly Cloudy
12:00 PM 68.0 °F - 39.2 °F 35% 29.94 in 9.0 mi Calm Calm - N/A   Scattered Clouds
1:00 PM 73.4 °F - 39.2 °F 29% 29.89 in 9.0 mi Calm Calm - N/A   Partly Cloudy
2:00 PM 74 °F - 39 °F 18% 29.86 in 9 mi Calm Calm - -  
2:00 PM 73.4 °F - 39.2 °F 29% 29.86 in 9.0 mi Calm Calm - N/A   Scattered Clouds
3:00 PM 71.6 °F - 41.0 °F 33% 29.84 in 9.0 mi SSW 16.1 mph - N/A   Mostly Cloudy
4:00 PM 71.6 °F - 39.2 °F 31% 29.83 in 9.0 mi WSW 12.7 mph - N/A   Overcast
4:42 PM 69.8 °F - 41.0 °F 35% 29.82 in 9.0 mi WNW 9.2 mph - N/A   Overcast
4:47 PM 64.4 °F - 41.0 °F 42% 29.82 in 9.0 mi North 12.7 mph - N/A Rain Light Rain
5:00 PM 62.6 °F - 39.2 °F 42% 29.83 in 9.0 mi North 13.8 mph - N/A   Overcast
6:00 PM 60.8 °F - 39.2 °F 45% 29.82 in 9.0 mi ENE 3.5 mph - N/A   Mostly Cloudy
7:00 PM 59.0 °F - 42.8 °F 55% 29.78 in 9.0 mi SSE 3.5 mph - N/A   Partly Cloudy
8:00 PM 57 °F - 43 °F 50% 29.75 in 9 mi SW 3.5 mph - -  
8:00 PM 57.2 °F - 42.8 °F 59% 29.75 in 9.0 mi SW 3.5 mph - N/A   Scattered Clouds
9:00 PM 55.4 °F - 42.8 °F 63% 29.76 in 9.0 mi North 3.5 mph - N/A   Mostly Cloudy
10:00 PM 51.8 °F - 46.4 °F 82% 29.76 in 9.0 mi WSW 5.8 mph - N/A   Partly Cloudy
11:00 PM 50.0 °F - 44.6 °F 82% 29.73 in 9.0 mi WNW 3.5 mph - N/A   Clear